timestamp,surface_pressure_avg,surface_temp_avg,battery_voltage,lat,long
2018-06-22 00:00:00+00:00,215.1497,8.1,13.05,47.84626,-54.09684
2018-06-22 00:10:00+00:00,213.5065,8.1,12.97,47.84626,-54.09684
2018-06-22 00:20:00+00:00,211.9965,8.09,13.05,47.84626,-54.09684
2018-06-22 00:30:00+00:00,215.0548,8.08,13.05,47.84626,-54.09684
2018-06-22 00:40:00+00:00,215.9714,8.05,13.05,47.84626,-54.09684
2018-06-22 00:50:00+00:00,214.6498,8.09,13.05,47.84626,-54.09684
2018-06-22 01:00:00+00:00,216.8498,8.1,12.97,47.84626,-54.09684
2018-06-22 01:10:00+00:00,221.6064,8.13,12.89,47.84626,-54.09684
2018-06-22 01:20:00+00:00,220.6831,8.19,12.97,47.84626,-54.09684
2018-06-22 01:30:00+00:00,220.4548,8.2,12.97,47.84626,-54.09684
2018-06-22 01:40:00+00:00,222.5731,8.2,12.97,47.84626,-54.09684
2018-06-22 01:50:00+00:00,224.4198,8.21,12.97,47.84626,-54.09684
2018-06-22 02:00:00+00:00,225.6131,8.27,12.89,47.84626,-54.09684
2018-06-22 02:10:00+00:00,228.9331,8.2,12.89,47.84626,-54.09684
2018-06-22 02:20:00+00:00,231.7464,8.19,12.89,47.84626,-54.09684
2018-06-22 02:30:00+00:00,232.9247,8.1,12.89,47.84626,-54.09684
2018-06-22 02:40:00+00:00,236.1331,8.09,12.97,47.84626,-54.09684
2018-06-22 02:50:00+00:00,240.6798,8.08,12.89,47.84626,-54.09684
2018-06-22 03:00:00+00:00,243.6164,8.1,12.89,47.84626,-54.09684
2018-06-22 03:10:00+00:00,245.8415,8.1,12.81,47.84626,-54.09684
2018-06-22 03:20:00+00:00,248.4547,8.1,12.89,47.84626,-54.09684
2018-06-22 03:30:00+00:00,250.4231,8.1,12.89,47.84626,-54.09684
2018-06-22 03:40:00+00:00,256.243,8.1,12.89,47.84626,-54.09684
2018-06-22 03:50:00+00:00,262.4164,8.05,12.89,47.84626,-54.09684
2018-06-22 04:00:00+00:00,268.8331,8.07,12.89,47.84626,-54.09684
2018-06-22 04:10:00+00:00,272.9764,8.07,12.81,47.84626,-54.09684
2018-06-22 04:20:00+00:00,280.5164,8.0,12.89,47.84626,-54.09684
2018-06-22 04:30:00+00:00,286.1281,8.0,12.89,47.84626,-54.09684
2018-06-22 04:40:00+00:00,292.6281,8.0,12.89,47.84626,-54.09684
2018-06-22 04:50:00+00:00,296.4697,8.03,12.89,47.84626,-54.09684
2018-06-22 05:00:00+00:00,303.8597,8.04,12.81,47.84626,-54.09684
2018-06-22 05:10:00+00:00,310.348,8.04,12.81,47.84626,-54.09684
2018-06-22 05:20:00+00:00,313.5863,8.08,12.89,47.84626,-54.09684
2018-06-22 05:30:00+00:00,314.8098,8.09,12.89,47.84626,-54.09684
2018-06-22 05:40:00+00:00,320.2047,8.08,12.89,47.84626,-54.09684
2018-06-22 05:50:00+00:00,320.858,8.07,12.89,47.84626,-54.09684
2018-06-22 06:00:00+00:00,322.1397,8.1,12.81,47.84626,-54.09684
2018-06-22 06:10:00+00:00,330.0464,8.0,12.81,47.84626,-54.09684
2018-06-22 06:20:00+00:00,331.408,7.97,12.81,47.84626,-54.09684
2018-06-22 06:30:00+00:00,322.6913,8.1,12.89,47.84626,-54.09684
2018-06-22 06:40:00+00:00,323.628,7.98,12.89,47.84626,-54.09684
2018-06-22 06:50:00+00:00,332.7513,7.7,12.89,47.84626,-54.09684
2018-06-22 07:00:00+00:00,334.8813,7.85,12.81,47.84626,-54.09684
2018-06-22 07:10:00+00:00,332.5863,8.0,12.81,47.84626,-54.09684
2018-06-22 07:20:00+00:00,337.028,8.0,12.81,47.84626,-54.09684
2018-06-22 07:30:00+00:00,334.9346,8.0,12.89,47.84626,-54.09684
2018-06-22 07:40:00+00:00,332.6479,8.09,12.89,47.84626,-54.09684
2018-06-22 07:50:00+00:00,333.4413,8.0,12.89,47.84626,-54.09684
2018-06-22 08:00:00+00:00,334.158,8.08,12.81,47.84626,-54.09684
2018-06-22 08:10:00+00:00,332.4097,8.1,12.81,47.84626,-54.09684
2018-06-22 08:20:00+00:00,329.0814,8.0,12.81,47.84626,-54.09684
2018-06-22 08:30:00+00:00,327.9063,8.0,12.89,47.84626,-54.09684
2018-06-22 08:40:00+00:00,323.1463,8.1,12.89,47.84626,-54.09684
2018-06-22 08:50:00+00:00,316.9948,8.0,12.89,47.84626,-54.09684
2018-06-22 09:00:00+00:00,313.0031,8.0,12.81,47.84626,-54.09684
2018-06-22 09:10:00+00:00,306.993,8.08,12.81,47.84626,-54.09684
2018-06-22 09:20:00+00:00,297.6647,8.1,12.89,47.84626,-54.09684
2018-06-22 09:30:00+00:00,292.713,8.1,12.89,47.84626,-54.09684
2018-06-22 09:40:00+00:00,288.4614,8.1,12.89,47.84626,-54.09684
2018-06-22 09:50:00+00:00,274.3713,8.12,12.97,47.84626,-54.09684
2018-06-22 10:00:00+00:00,260.8298,8.19,12.89,47.84626,-54.09684
2018-06-22 10:10:00+00:00,260.3798,8.19,12.89,47.84626,-54.09684
2018-06-22 10:20:00+00:00,255.7481,8.2,13.05,47.84626,-54.09684
2018-06-22 10:30:00+00:00,242.0247,8.3,13.13,47.84626,-54.09684
2018-06-22 10:40:00+00:00,240.0015,8.4,13.29,47.84626,-54.09684
2018-06-22 10:50:00+00:00,239.7781,8.4,13.53,47.84626,-54.09684
2018-06-22 11:00:00+00:00,231.3581,8.51,14.0,47.84626,-54.09684
2018-06-22 11:10:00+00:00,227.9848,8.5,14.0,47.84626,-54.09684
2018-06-22 11:20:00+00:00,231.5797,8.4,14.16,47.84626,-54.09684
2018-06-22 11:30:00+00:00,226.1215,8.33,14.08,47.84626,-54.09684
2018-06-22 11:40:00+00:00,216.493,8.52,14.08,47.84626,-54.09684
2018-06-22 11:50:00+00:00,217.7548,8.6,14.08,47.84626,-54.09684
2018-06-22 12:00:00+00:00,217.9831,8.4,13.92,47.84626,-54.09684
2018-06-22 12:10:00+00:00,210.6115,8.41,13.92,47.84626,-54.09684
2018-06-22 12:20:00+00:00,208.3931,8.4,14.08,47.84626,-54.09684
2018-06-22 12:30:00+00:00,214.0515,8.4,14.48,47.84626,-54.09684
2018-06-22 12:40:00+00:00,215.2514,8.3,15.75,47.84626,-54.09684
2018-06-22 12:50:00+00:00,212.9965,8.3,15.2,47.84626,-54.09684
2018-06-22 13:00:00+00:00,214.9281,8.35,14.64,47.84626,-54.09684
2018-06-22 13:10:00+00:00,218.1731,8.4,14.72,47.84626,-54.09684
2018-06-22 13:20:00+00:00,215.8714,8.47,14.56,47.84626,-54.09684
2018-06-22 13:30:00+00:00,217.0331,8.5,14.4,47.84626,-54.09684
2018-06-22 13:40:00+00:00,219.0315,8.5,14.56,47.84626,-54.09684
2018-06-22 13:50:00+00:00,217.8531,8.5,14.48,47.84626,-54.09684
2018-06-22 14:00:00+00:00,217.9248,8.5,14.48,47.84626,-54.09684
2018-06-22 14:10:00+00:00,220.1397,8.3,14.24,47.84626,-54.09684
2018-06-22 14:20:00+00:00,222.7931,8.28,15.83,47.84626,-54.09684
2018-06-22 14:30:00+00:00,226.2298,8.2,14.64,47.84626,-54.09684
2018-06-22 14:40:00+00:00,230.5715,8.1,14.72,47.84626,-54.09684
2018-06-22 14:50:00+00:00,232.2981,8.1,14.48,47.84626,-54.09684
2018-06-22 15:00:00+00:00,232.1314,8.0,14.48,47.84626,-54.09684
2018-06-22 15:10:00+00:00,233.9798,8.0,14.4,47.84626,-54.09684
2018-06-22 15:20:00+00:00,239.3564,8.04,14.4,47.84626,-54.09684
2018-06-22 15:30:00+00:00,239.7331,8.1,14.32,47.84626,-54.09684
2018-06-22 15:40:00+00:00,240.3714,8.1,14.24,47.84626,-54.09684
2018-06-22 15:50:00+00:00,243.4097,8.1,14.32,47.84626,-54.09684
2018-06-22 16:00:00+00:00,251.6914,8.1,14.24,47.84626,-54.09684
2018-06-22 16:10:00+00:00,254.8414,8.1,14.16,47.84626,-54.09684
2018-06-22 16:20:00+00:00,258.1947,8.09,14.32,47.84626,-54.09684
2018-06-22 16:30:00+00:00,264.7614,8.07,14.32,47.84626,-54.09684
2018-06-22 16:40:00+00:00,274.8148,8.0,14.24,47.84626,-54.09684
2018-06-22 16:50:00+00:00,281.348,8.0,14.24,47.84626,-54.09684
2018-06-22 17:00:00+00:00,288.718,8.03,14.16,47.84626,-54.09684
2018-06-22 17:10:00+00:00,294.6481,8.0,14.08,47.84626,-54.09684
2018-06-22 17:20:00+00:00,303.4197,8.0,14.16,47.84626,-54.09684
2018-06-22 17:30:00+00:00,310.3196,7.93,14.32,47.84626,-54.09684
2018-06-22 17:40:00+00:00,314.3414,8.0,14.32,47.84626,-54.09684
2018-06-22 17:50:00+00:00,315.8164,8.1,14.32,47.84626,-54.09684
2018-06-22 18:00:00+00:00,321.843,8.0,14.16,47.84626,-54.09684
2018-06-22 18:10:00+00:00,326.9464,7.99,14.08,47.84626,-54.09684
2018-06-22 18:20:00+00:00,331.0063,8.0,14.16,47.84626,-54.09684
2018-06-22 18:30:00+00:00,333.2796,8.0,14.16,47.84626,-54.09684
2018-06-22 18:40:00+00:00,335.363,7.98,14.16,47.84626,-54.09684
2018-06-22 18:50:00+00:00,338.2097,7.9,14.24,47.84626,-54.09684
2018-06-22 19:00:00+00:00,336.8163,7.96,14.24,47.84626,-54.09684
2018-06-22 19:10:00+00:00,336.9679,7.8,14.08,47.84626,-54.09684
2018-06-22 19:20:00+00:00,338.2547,7.6,14.08,47.84626,-54.09684
2018-06-22 19:30:00+00:00,340.7563,7.7,14.08,47.84626,-54.09684
2018-06-22 19:40:00+00:00,336.7847,7.9,14.0,47.84626,-54.09684
2018-06-22 19:50:00+00:00,332.2363,8.0,14.0,47.84626,-54.09684
2018-06-22 20:00:00+00:00,335.303,8.0,13.84,47.84626,-54.09684
2018-06-22 20:10:00+00:00,337.1813,8.0,13.68,47.84626,-54.09684
2018-06-22 20:20:00+00:00,334.2463,8.1,13.68,47.84626,-54.09684
2018-06-22 20:30:00+00:00,331.678,8.1,13.68,47.84626,-54.09684
2018-06-22 20:40:00+00:00,332.3029,8.1,13.68,47.84626,-54.09684
2018-06-22 20:50:00+00:00,326.2497,8.23,13.68,47.84626,-54.09684
2018-06-22 21:00:00+00:00,321.0146,8.3,13.6,47.84626,-54.09684
2018-06-22 21:10:00+00:00,318.1346,8.29,13.44,47.84626,-54.09684
2018-06-22 21:20:00+00:00,309.5447,8.26,13.44,47.84626,-54.09684
2018-06-22 21:30:00+00:00,300.1581,8.32,13.44,47.84626,-54.09684
2018-06-22 21:40:00+00:00,295.7114,8.3,13.44,47.84626,-54.09684
2018-06-22 21:50:00+00:00,293.1497,8.3,13.37,47.84626,-54.09684
2018-06-22 22:00:00+00:00,285.053,8.3,13.29,47.84626,-54.09684
2018-06-22 22:10:00+00:00,277.5765,8.38,13.21,47.84626,-54.09684
2018-06-22 22:20:00+00:00,272.1298,8.41,13.21,47.84626,-54.09684
2018-06-22 22:30:00+00:00,262.5181,8.66,13.21,47.84626,-54.09684
2018-06-22 22:40:00+00:00,256.8281,8.8,13.13,47.84626,-54.09684
2018-06-22 22:50:00+00:00,255.9515,8.7,13.13,47.84626,-54.09684
2018-06-22 23:00:00+00:00,249.9464,8.8,13.05,47.84626,-54.09684
2018-06-22 23:10:00+00:00,239.4398,8.8,13.05,47.84626,-54.09684
2018-06-22 23:20:00+00:00,239.3248,8.8,13.13,47.84626,-54.09684
2018-06-22 23:30:00+00:00,239.8181,8.79,13.13,47.84626,-54.09684
2018-06-22 23:40:00+00:00,230.3698,8.8,13.13,47.84626,-54.09684
2018-06-22 23:50:00+00:00,224.2314,8.8,13.13,47.84626,-54.09684
